User: anonymous   Login
Location: Unspecified
(0.0000°N, 0.0000°E)
Time: 10:33:16
(UTC+00:00)
Language:

AUTCUBE 2 - Orbit

View from above orbital plane
View from above orbital plane
View from above satellite
View from above satellite

Ground track
Ground track

The orbit data is extracted from the following two-line orbital elements,

1 43679U 18084J   19288.84397912 +.00000090 +00000-0 +14502-4 0  9996
2 43679 097.8669 043.0386 0007736 278.8101 081.2241 14.92080943052421
Epoch (UTC): 15 October 2019 20:15:19
Eccentricity: 0.0007736
inclination: 97.8669°
perigee height: 586 km
apogee height: 597 km
right ascension of ascending node: 43.0386°
argument of perigee: 278.8101°
revolutions per day: 14.92080943
mean anomaly at epoch: 81.2241°
orbit number at epoch: 5242

The dashed part of the orbit path shows where the satellite is in the earth's shadow,  

DLR